• Currently

    Reported at Wellington Airport
    1:00 AM GMT12 FRI AUG 18 2017
  • 55°F13°C
  • Fair
    Fair
  • Feels Like:55°F13°CDew Point:50°F10°CHumidity:82% Winds:NNW 17 mph 27 kph
    Pressure:29.65 in1004 hPaVisibility:6.21 miles10000.00 meters
Time Weather Temp Dew Point
Humidity Winds Visibility Pressure Precipitation
1 hr 24 hr
Thursday, August 17
22:30 22:30 Mostly Cloudy Mostly Cloudy 57°F14°C 50°F10°C 77% NNW 22 mphNNW 35 kph 30.0 miles48.3 km 29.65 in1004 hPa -- --
22:00 22:00 Mostly Cloudy Mostly Cloudy 57°F14°C 50°F10°C 77% NNW 23 mphNNW 37 kph 30.0 miles48.3 km 29.62 in1003 hPa -- --
21:30 21:30 Partly Cloudy Partly Cloudy 57°F14°C 50°F10°C 77% NNW 25 mphNNW 41 kph 30.0 miles48.3 km 29.65 in1004 hPa -- --
21:00 21:00 Mostly Cloudy Mostly Cloudy 57°F14°C 50°F10°C 77% NNW 23 mphNNW 37 kph 30.0 miles48.3 km 29.62 in1003 hPa -- --
20:30 20:30 Cloudy Cloudy 57°F14°C 50°F10°C 77% NNW 23 mphNNW 37 kph 30.0 miles48.3 km 29.62 in1003 hPa -- --
20:00 20:00 Cloudy Cloudy 57°F14°C 50°F10°C 77% NNW 20 mphNNW 31 kph 30.0 miles48.3 km 29.62 in1003 hPa -- --
19:30 19:30 Mostly Cloudy Mostly Cloudy 57°F14°C 50°F10°C 77% NNW 18 mphNNW 30 kph 30.0 miles48.3 km 29.62 in1003 hPa -- --
19:00 19:00 Mostly Cloudy Mostly Cloudy 57°F14°C 50°F10°C 77% NNW 21 mphNNW 33 kph 30.0 miles48.3 km 29.59 in1002 hPa -- --
18:30 18:30 Mostly Cloudy Mostly Cloudy 57°F14°C 52°F11°C 82% NNW 28 mphNNW 44 kph 30.0 miles48.3 km 29.59 in1002 hPa -- --
18:00 18:00 Mostly Cloudy Mostly Cloudy 57°F14°C 52°F11°C 82% NNW 28 mphNNW 44 kph 30.0 miles48.3 km 29.59 in1002 hPa -- --
17:30 17:30 Partly Cloudy Partly Cloudy 57°F14°C 50°F10°C 77% NNW 25 mphNNW 41 kph 30.0 miles48.3 km 29.56 in1001 hPa -- --
17:00 17:00 Mostly Clear Mostly Clear 57°F14°C 52°F11°C 82% NNW 28 mphNNW 44 kph 30.0 miles48.3 km 29.56 in1001 hPa -- --
16:30 16:30 Mostly Cloudy Mostly Cloudy 57°F14°C 50°F10°C 77% NNW 26 mphNNW 43 kph 30.0 miles48.3 km 29.56 in1001 hPa -- --
16:00 16:00 Mostly Sunny Mostly Sunny 57°F14°C 52°F11°C 82% NNW 29 mphNNW 46 kph 30.0 miles48.3 km 29.56 in1001 hPa -- --
15:30 15:30 Partly Cloudy Partly Cloudy 59°F15°C 52°F11°C 77% NNW 24 mphNNW 39 kph 30.0 miles48.3 km 29.56 in1001 hPa -- --
15:00 15:00 Mostly Cloudy Mostly Cloudy 59°F15°C 52°F11°C 77% NNW 22 mphNNW 35 kph 30.0 miles48.3 km 29.59 in1002 hPa -- --
14:30 14:30 Partly Cloudy Partly Cloudy 61°F16°C 52°F11°C 72% NNW 21 mphNNW 33 kph 30.0 miles48.3 km 29.56 in1001 hPa -- --
14:00 14:00 Mostly Sunny Mostly Sunny 61°F16°C 52°F11°C 72% NNW 23 mphNNW 37 kph 30.0 miles48.3 km 29.53 in1000 hPa -- --
13:30 13:30 Mostly Sunny Mostly Sunny 59°F15°C 52°F11°C 77% NNW 26 mphNNW 43 kph 30.0 miles48.3 km 29.53 in1000 hPa -- --
13:00 13:00 Mostly Cloudy Mostly Cloudy 59°F15°C 54°F12°C 82% NNW 28 mphNNW 44 kph 30.0 miles48.3 km 29.56 in1001 hPa -- --
12:30 12:30 Mostly Cloudy Mostly Cloudy 59°F15°C 54°F12°C 82% NNW 29 mphNNW 46 kph 30.0 miles48.3 km 29.56 in1001 hPa -- --
12:00 12:00 Mostly Cloudy With Rain Mostly Cloudy With Rain 57°F14°C 54°F12°C 88% N 31 mphN 50 kph 30.0 miles48.3 km 29.59 in1002 hPa -- --
11:30 11:30 Cloudy With Rain Cloudy With Rain 57°F14°C 54°F12°C 88% N 32 mphN 52 kph 5.0 miles8.0 km 29.59 in1002 hPa -- --
11:00 11:00 Mostly Cloudy With Rain Mostly Cloudy With Rain 55°F13°C 54°F12°C 94% N 31 mphN 50 kph 2.7 miles4.4 km 29.59 in1002 hPa -- --
10:30 10:30 Mostly Cloudy With Rain Mostly Cloudy With Rain 57°F14°C 52°F11°C 82% N 38 mphN 61 kph 30.0 miles48.3 km 29.59 in1002 hPa -- --
10:00 10:00 Mostly Cloudy With Rain Mostly Cloudy With Rain 59°F15°C 52°F11°C 77% N 40 mphN 65 kph 30.0 miles48.3 km 29.56 in1001 hPa -- --
09:30 09:30 Cloudy With Light Drizzle Cloudy With Light Drizzle 59°F15°C 52°F11°C 77% N 39 mphN 63 kph 30.0 miles48.3 km 29.56 in1001 hPa -- --
09:00 09:00 Cloudy Cloudy 59°F15°C 50°F10°C 72% N 40 mphN 65 kph 30.0 miles48.3 km 29.56 in1001 hPa -- --
08:30 08:30 Mostly Cloudy Mostly Cloudy 59°F15°C 52°F11°C 77% N 41 mphN 67 kph 30.0 miles48.3 km 29.56 in1001 hPa -- --
08:00 08:00 Mostly Cloudy Mostly Cloudy 59°F15°C 52°F11°C 77% NNW 38 mphNNW 61 kph 30.0 miles48.3 km 29.56 in1001 hPa -- --
07:30 07:30 Mostly Cloudy Mostly Cloudy 57°F14°C 50°F10°C 77% NNW 39 mphNNW 63 kph 30.0 miles48.3 km 29.56 in1001 hPa -- --
07:00 07:00 Mostly Cloudy Mostly Cloudy 57°F14°C 50°F10°C 77% N 35 mphN 56 kph 30.0 miles48.3 km 29.59 in1002 hPa -- --
06:30 06:30 Mostly Cloudy With Light Rain Mostly Cloudy With Light Rain 57°F14°C 52°F11°C 82% N 31 mphN 50 kph 30.0 miles48.3 km 29.62 in1003 hPa -- --
06:00 06:00 Mostly Cloudy With Light Drizzle Mostly Cloudy With Light Drizzle 57°F14°C 52°F11°C 82% N 29 mphN 46 kph 30.0 miles48.3 km 29.65 in1004 hPa -- --
05:30 05:30 Mostly Cloudy With Drizzle Mostly Cloudy With Drizzle 57°F14°C 52°F11°C 82% N 32 mphN 52 kph 30.0 miles48.3 km 29.65 in1004 hPa -- --
05:00 05:00 Cloudy With Drizzle Cloudy With Drizzle 57°F14°C 52°F11°C 82% N 33 mphN 54 kph 30.0 miles48.3 km 29.62 in1003 hPa -- --
04:30 04:30 Mostly Cloudy With Drizzle Mostly Cloudy With Drizzle 55°F13°C 52°F11°C 88% N 35 mphN 56 kph 3.1 miles5.0 km 29.62 in1003 hPa -- --
04:00 04:00 Cloudy Cloudy 57°F14°C 50°F10°C 77% N 28 mphN 44 kph 30.0 miles48.3 km 29.65 in1004 hPa -- --
03:30 03:30 Mostly Cloudy Mostly Cloudy 57°F14°C 50°F10°C 77% N 32 mphN 52 kph 30.0 miles48.3 km 29.68 in1005 hPa -- --
03:00 03:00 Cloudy Cloudy 57°F14°C 52°F11°C 82% N 29 mphN 46 kph 30.0 miles48.3 km 29.68 in1005 hPa -- --
02:30 02:30 Mostly Cloudy Mostly Cloudy 57°F14°C 52°F11°C 82% N 32 mphN 52 kph 30.0 miles48.3 km 29.68 in1005 hPa -- --
02:00 02:00 Mostly Cloudy Mostly Cloudy 57°F14°C 52°F11°C 82% N 31 mphN 50 kph 30.0 miles48.3 km 29.71 in1006 hPa -- --
01:30 01:30 Cloudy Cloudy 57°F14°C 52°F11°C 82% N 29 mphN 46 kph 30.0 miles48.3 km 29.71 in1006 hPa -- --
01:00 01:00 Mostly Cloudy Mostly Cloudy 57°F14°C 52°F11°C 82% N 30 mphN 48 kph 30.0 miles48.3 km 29.74 in1007 hPa -- --
00:30 00:30 Cloudy Cloudy 57°F14°C 52°F11°C 82% NNW 28 mphNNW 44 kph 30.0 miles48.3 km 29.74 in1007 hPa -- --
00:00 00:00 Mostly Cloudy Mostly Cloudy 57°F14°C 52°F11°C 82% NNW 28 mphNNW 44 kph 30.0 miles48.3 km 29.74 in1007 hPa -- --
23:30 23:30 Mostly Cloudy Mostly Cloudy 57°F14°C 52°F11°C 82% N 23 mphN 37 kph 30.0 miles48.3 km 29.77 in1008 hPa -- --
23:00 23:00 Cloudy Cloudy 57°F14°C 54°F12°C 88% NNW 23 mphNNW 37 kph 30.0 miles48.3 km 29.77 in1008 hPa -- --